Weather History for Anchorage Merrill, AK

Change the Weather History Date:

Thursday, October 4, 2012

  Actual Average Record
Temperature  
Mean Temperature 49 °F -  
Max Temperature 57 °F 46 °F 57 °F (2012)
Min Temperature 43 °F 32 °F 28 °F (1993)
Degree Days  
Heating Degree Days 16    
Moisture  
Dew Point 44 °F    
Average Humidity 87    
Maximum Humidity 97    
Minimum Humidity 62    
Precipitation  
Precipitation 0.00 in - - ()
Sea Level Pressure  
Sea Level Pressure 30.01 in    
Wind  
Wind Speed 5 mph (NW)    
Max Wind Speed 18 mph    
Max Gust Speed 23 mph    
Visibility 10 miles    
Events Rain    
Averages and records for this station are not official NWS values.
T = Trace of Precipitation, MM = Missing Value Source: NWS Daily Summary

Daily Weather History Graph

Daily Weather History Graph

Search for Another Location

Airport:

Trip Planner

Search our weather history database for the weather conditions in past years. The results will help you decide how hot, cold, wet, or windy it might be!

Date:

Astronomy

Oct. 04, 2012 Rise Set
Actual Time 8:15 AM AKDT 7:19 PM AKDT
Civil Twilight 7:32 AM AKDT 8:02 PM AKDT
Nautical Twilight 6:41 AM AKDT 8:52 PM AKDT
Astronomical Twilight 5:49 AM AKDT 9:44 PM AKDT
Moon 8:37 PM AKDT (10/4) 2:05 PM AKDT (10/4)
Length of Visible Light 12h 30m
Length of Day
11h 04m
Waning Gibbous, 81% of the Moon is Illuminated
Oct 4
Waning Gibbous
Oct 7
Last Quarter
Oct 15
New
Oct 21
First Quarter
Oct 29
Full

Hourly Weather History & Observations

Time (AKDT) Temp. Windchill Dew Point Humidity Pressure Visibility Wind Dir Wind Speed Gust Speed Precip Events Conditions
12:53 AM 45.0 °F 41.8 °F 43.0 °F 93% 30.03 in 10.0 mi North 5.8 mph - N/A   Overcast
1:13 AM 44.6 °F - 42.8 °F 93% 30.03 in 10.0 mi Calm Calm - N/A   Overcast
1:53 AM 45.0 °F 42.6 °F 42.1 °F 90% 30.03 in 10.0 mi NW 4.6 mph - N/A   Overcast
2:53 AM 43.0 °F 40.3 °F 42.1 °F 97% 30.01 in 10.0 mi WNW 4.6 mph - N/A   Overcast
3:53 AM 44.1 °F - 43.0 °F 96% 30.01 in 10.0 mi Calm Calm - 0.00 in Rain Light Rain
4:53 AM 44.1 °F 39.5 °F 42.1 °F 93% 30.00 in 10.0 mi NW 8.1 mph - 0.00 in   Overcast
5:53 AM 44.1 °F 40.8 °F 42.1 °F 93% 29.97 in 10.0 mi NW 5.8 mph - N/A   Overcast
6:53 AM 43.0 °F 38.8 °F 42.1 °F 97% 29.98 in 10.0 mi WNW 6.9 mph - N/A   Overcast
7:53 AM 44.1 °F 41.5 °F 42.1 °F 93% 29.97 in 10.0 mi NW 4.6 mph - N/A   Mostly Cloudy
8:53 AM 44.1 °F - 42.1 °F 93% 30.00 in 10.0 mi Calm Calm - N/A   Overcast
9:53 AM 45.0 °F 43.5 °F 42.1 °F 90% 29.97 in 10.0 mi North 3.5 mph - N/A   Overcast
10:53 AM 46.0 °F 42.5 °F 43.0 °F 89% 29.96 in 10.0 mi WNW 6.9 mph - 0.00 in   Overcast
11:53 AM 46.0 °F 41.9 °F 44.1 °F 93% 29.98 in 10.0 mi NW 8.1 mph - 0.00 in Rain Light Rain
12:53 PM 48.0 °F - 44.1 °F 86% 29.99 in 10.0 mi WNW 8.1 mph - 0.00 in   Overcast
1:53 PM 48.9 °F - 46.0 °F 90% 29.98 in 10.0 mi WNW 8.1 mph - N/A   Overcast
2:53 PM 50.0 °F - 46.9 °F 89% 29.99 in 10.0 mi WNW 3.5 mph - N/A   Overcast
3:53 PM 51.1 °F - 48.0 °F 89% 29.99 in 10.0 mi Calm Calm - N/A   Mostly Cloudy
4:53 PM 53.1 °F - 46.9 °F 80% 30.01 in 10.0 mi NW 6.9 mph - N/A   Overcast
5:53 PM 54.0 °F - 48.0 °F 80% 30.02 in 10.0 mi Calm Calm - N/A   Overcast
6:53 PM 54.0 °F - 48.0 °F 80% 30.03 in 10.0 mi NNE 5.8 mph - N/A   Overcast
7:53 PM 52.0 °F - 46.9 °F 83% 30.03 in 10.0 mi Calm Calm - N/A   Clear
8:53 PM 50.0 °F - 45.0 °F 83% 30.06 in 10.0 mi Calm Calm - N/A   Clear
9:53 PM 55.0 °F - 42.1 °F 62% 30.07 in 10.0 mi South 3.5 mph - N/A   Partly Cloudy
10:53 PM 53.1 °F - 45.0 °F 74% 30.11 in 10.0 mi SSW 18.4 mph 23.0 mph N/A   Scattered Clouds
11:53 PM 52.0 °F - 46.0 °F 80% 30.13 in 10.0 mi WSW 11.5 mph 20.7 mph N/A   Scattered Clouds